Location: Jodlow
(50.1500°N, 16.7500°E)
Time: 02:21:30
(UTC+02:00)

O/OREOS (USA 219) - Pass Details

Date: 07 April 2023
Orbit: 621 x 646 km, 72.0° (Epoch: 22 May)

Event Time Altitude Azimuth Distance (km) Brightness Sun altitude
Exits shadow 03:10:39 15° 124° (SE) 1,713 ? -26.1°
Maximum altitude 03:12:09 17° 101° (E) 1,591 ? -25.9°
Drops below altitude 10° 03:15:08 10° 60° (ENE) 2,029 ? -25.6°
Sets 03:18:02 0° 41° (NE) 2,938 ? -25.3°
